When you browse on this site, cookies collect data to enhance your experience and personalize the content and advertising you see.
Visit our Privacy Policy to learn more. By continuing to use the site, you agree to this use of cookies and data.
  • In United Kingdom
  • List of Countries
  • For 7 days
  • Water Temperature
  • Satellite Maps
  • Weather Map
  • Weather Widgets
  • user-avatar
    Login

    Hourly Weather Konstantyna

    Today, 19 December, Wednesday

    Time Temperature Precipitation Wind Pressure Humidity
    00:00 +7°C° 0 mm 3 mps 714 mmHg 43%
    01:00 +7°C° 0 mm 3 mps 714 mmHg 45%
    02:00 +7°C° 0 mm 2 mps 714 mmHg 47%
    03:00 +7°C° 0 mm 2 mps 714 mmHg 49%
    04:00 +7°C° 0 mm 2 mps 714 mmHg 51%
    05:00 +7°C° 0 mm 2 mps 714 mmHg 54%
    06:00 +6°C° 0 mm 2 mps 714 mmHg 56%
    07:00 +8°C° 0 mm 2 mps 714 mmHg 54%
    08:00 +10°C° 0 mm 2 mps 715 mmHg 53%
    09:00 +12°C° 0 mm 2 mps 715 mmHg 51%
    10:00 +14°C° 0 mm 2 mps 715 mmHg 47%
    11:00 +16°C° 0 mm 2 mps 715 mmHg 42%
    12:00 +18°C° 0 mm 2 mps 715 mmHg 38%
    13:00 +18°C° 0 mm 2 mps 715 mmHg 40%
    14:00 +19°C° 0 mm 1 mps 714 mmHg 42%
    15:00 +19°C° 0 mm 1 mps 714 mmHg 44%
    16:00 +16°C° 0 mm 1 mps 714 mmHg 49%
    17:00 +14°C° 0 mm 1 mps 714 mmHg 53%
    18:00 +12°C° 0 mm 1 mps 714 mmHg 58%
    19:00 +12°C° 0 mm 1 mps 714 mmHg 60%
    20:00 +11°C° 0 mm 1 mps 714 mmHg 62%
    21:00 +10°C° 0 mm 1 mps 714 mmHg 64%
    22:00 +10°C° 0 mm 1 mps 714 mmHg 65%
    23:00 +10°C° 0 mm 1 mps 714 mmHg 65%

    Tomorrow, 20 December, Thursday

    Time Temperature Precipitation Wind Pressure Humidity
    00:00 +10°C° 0 mm 1 mps 714 mmHg 66%
    01:00 +10°C° 0 mm 1 mps 714 mmHg 67%
    02:00 +9°C° 0 mm 1 mps 714 mmHg 68%
    03:00 +9°C° 0 mm 1 mps 714 mmHg 69%
    04:00 +9°C° 0 mm 1 mps 714 mmHg 71%
    05:00 +7°C° 0 mm 0 mps 714 mmHg 73%
    06:00 +7°C° 0 mm 0 mps 714 mmHg 74%
    07:00 +9°C° 0 mm 0 mps 715 mmHg 69%
    08:00 +10°C° 0 mm 0 mps 715 mmHg 63%
    09:00 +13°C° 0 mm 1 mps 716 mmHg 58%
    10:00 +14°C° 0 mm 1 mps 716 mmHg 56%
    11:00 +15°C° 0 mm 1 mps 716 mmHg 53%
    12:00 +16°C° 0 mm 1 mps 716 mmHg 51%
    13:00 +16°C° 0 mm 1 mps 716 mmHg 53%
    14:00 +16°C° 0 mm 1 mps 716 mmHg 55%
    15:00 +15°C° 0 mm 2 mps 715 mmHg 56%
    16:00 +14°C° 0.1 mm 2 mps 716 mmHg 64%
    17:00 +13°C° 0.1 mm 1 mps 716 mmHg 71%
    18:00 +12°C° 0.1 mm 1 mps 716 mmHg 78%
    19:00 +12°C° 0.1 mm 1 mps 716 mmHg 81%
    20:00 +11°C° 0.1 mm 1 mps 717 mmHg 84%
    21:00 +11°C° 0.1 mm 1 mps 717 mmHg 87%
    22:00 +11°C° 0.1 mm 1 mps 717 mmHg 89%
    23:00 +11°C° 0.1 mm 1 mps 717 mmHg 90%

    Day after tomorrow, 21 December, Friday

    Time Temperature Precipitation Wind Pressure Humidity
    00:00 +11°C° 0.1 mm 1 mps 717 mmHg 91%
    01:00 +10°C° 0 mm 1 mps 717 mmHg 92%
    02:00 +9°C° 0 mm 0 mps 718 mmHg 93%
    03:00 +9°C° 0 mm 0 mps 718 mmHg 94%
    04:00 +8°C° 0 mm 0 mps 718 mmHg 94%
    05:00 +8°C° 0 mm 0 mps 718 mmHg 95%
    06:00 +8°C° 0 mm 0 mps 718 mmHg 96%
    07:00 +9°C° 0 mm 0 mps 719 mmHg 91%
    08:00 +10°C° 0 mm 0 mps 719 mmHg 87%
    09:00 +11°C° 0 mm 0 mps 720 mmHg 83%
    10:00 +11°C° 0 mm 0 mps 720 mmHg 76%
    11:00 +12°C° 0 mm 0 mps 720 mmHg 69%
    12:00 +14°C° 0 mm 1 mps 720 mmHg 63%
    13:00 +14°C° 0 mm 1 mps 720 mmHg 62%
    14:00 +14°C° 0 mm 1 mps 719 mmHg 61%
    15:00 +15°C° 0 mm 1 mps 719 mmHg 60%
    16:00 +13°C° 0 mm 1 mps 719 mmHg 67%
    17:00 +12°C° 0 mm 1 mps 719 mmHg 74%
    18:00 +10°C° 0 mm 0 mps 720 mmHg 81%
    19:00 +9°C° 0 mm 0 mps 720 mmHg 83%
    20:00 +9°C° 0 mm 0 mps 720 mmHg 84%
    21:00 +8°C° 0 mm 0 mps 720 mmHg 86%
    22:00 +9°C° 0 mm 1 mps 720 mmHg 86%
    23:00 +9°C° 0 mm 1 mps 720 mmHg 86%

    22 December, Saturday

    Time Temperature Precipitation Wind Pressure Humidity
    00:00 +9°C° 0 mm 1 mps 719 mmHg 86%
    01:00 +9°C° 0 mm 1 mps 719 mmHg 85%
    02:00 +9°C° 0 mm 1 mps 719 mmHg 85%
    03:00 +8°C° 0 mm 1 mps 719 mmHg 85%
    04:00 +8°C° 0 mm 1 mps 719 mmHg 84%
    05:00 +8°C° 0 mm 1 mps 719 mmHg 84%
    06:00 +8°C° 0 mm 1 mps 719 mmHg 84%
    07:00 +10°C° 0 mm 1 mps 719 mmHg 78%
    08:00 +11°C° 0 mm 1 mps 720 mmHg 72%
    09:00 +13°C° 0 mm 2 mps 720 mmHg 66%
    10:00 +14°C° 0 mm 2 mps 720 mmHg 58%
    11:00 +15°C° 0 mm 2 mps 720 mmHg 51%
    12:00 +16°C° 0 mm 2 mps 720 mmHg 44%
    13:00 +16°C° 0 mm 2 mps 719 mmHg 44%
    14:00 +17°C° 0 mm 2 mps 719 mmHg 43%
    15:00 +17°C° 0 mm 2 mps 719 mmHg 43%
    16:00 +15°C° 0 mm 1 mps 719 mmHg 49%
    17:00 +13°C° 0 mm 1 mps 719 mmHg 56%
    18:00 +10°C° 0 mm 0 mps 718 mmHg 62%
    19:00 +11°C° 0 mm 1 mps 719 mmHg 63%
    20:00 +10°C° 0 mm 1 mps 719 mmHg 64%
    21:00 +10°C° 0 mm 1 mps 719 mmHg 65%
    22:00 +10°C° 0 mm 1 mps 718 mmHg 65%
    23:00 +10°C° 0 mm 1 mps 718 mmHg 65%

    23 December, Sunday

    Time Temperature Precipitation Wind Pressure Humidity
    00:00 +9°C° 0 mm 1 mps 718 mmHg 65%
    01:00 +9°C° 0 mm 1 mps 718 mmHg 66%
    02:00 +9°C° 0 mm 1 mps 717 mmHg 67%
    03:00 +9°C° 0 mm 1 mps 717 mmHg 67%
    04:00 +9°C° 0 mm 1 mps 717 mmHg 68%
    05:00 +8°C° 0 mm 1 mps 717 mmHg 68%
    06:00 +8°C° 0 mm 1 mps 717 mmHg 69%
    07:00 +10°C° 0 mm 1 mps 718 mmHg 62%
    08:00 +12°C° 0 mm 1 mps 718 mmHg 56%
    09:00 +14°C° 0 mm 1 mps 719 mmHg 50%
    10:00 +15°C° 0 mm 1 mps 719 mmHg 44%
    11:00 +16°C° 0 mm 1 mps 719 mmHg 39%
    12:00 +19°C° 0 mm 1 mps 719 mmHg 33%
    13:00 +19°C° 0 mm 1 mps 718 mmHg 35%
    14:00 +19°C° 0 mm 1 mps 718 mmHg 36%
    15:00 +19°C° 0 mm 1 mps 718 mmHg 38%
    16:00 +16°C° 0 mm 1 mps 718 mmHg 44%
    17:00 +13°C° 0 mm 0 mps 717 mmHg 50%
    18:00 +10°C° 0 mm 0 mps 717 mmHg 56%
    19:00 +10°C° 0 mm 0 mps 717 mmHg 57%
    20:00 +10°C° 0 mm 0 mps 717 mmHg 57%
    21:00 +10°C° 0 mm 0 mps 718 mmHg 57%
    22:00 +10°C° 0 mm 1 mps 717 mmHg 56%
    23:00 +10°C° 0 mm 1 mps 717 mmHg 55%

    24 December, Monday

    Time Temperature Precipitation Wind Pressure Humidity
    00:00 +10°C° 0 mm 1 mps 717 mmHg 54%
    01:00 +10°C° 0 mm 1 mps 717 mmHg 54%
    02:00 +10°C° 0 mm 1 mps 717 mmHg 53%
    03:00 +10°C° 0 mm 1 mps 716 mmHg 52%
    04:00 +9°C° 0 mm 1 mps 716 mmHg 51%
    05:00 +9°C° 0 mm 1 mps 716 mmHg 50%
    06:00 +9°C° 0 mm 1 mps 716 mmHg 49%
    07:00 +11°C° 0 mm 1 mps 717 mmHg 45%
    08:00 +13°C° 0 mm 1 mps 717 mmHg 41%
    09:00 +15°C° 0 mm 1 mps 718 mmHg 37%
    10:00 +18°C° 0 mm 1 mps 718 mmHg 34%
    11:00 +19°C° 0 mm 1 mps 717 mmHg 31%
    12:00 +20°C° 0 mm 1 mps 717 mmHg 27%
    13:00 +20°C° 0 mm 1 mps 717 mmHg 30%
    14:00 +20°C° 0 mm 1 mps 716 mmHg 32%
    15:00 +20°C° 0 mm 1 mps 716 mmHg 35%
    16:00 +18°C° 0 mm 1 mps 716 mmHg 39%
    17:00 +14°C° 0 mm 0 mps 716 mmHg 43%
    18:00 +12°C° 0 mm 0 mps 715 mmHg 48%
    19:00 +12°C° 0 mm 1 mps 715 mmHg 47%
    20:00 +12°C° 0 mm 1 mps 715 mmHg 47%
    21:00 +12°C° 0 mm 1 mps 715 mmHg 47%
    22:00 +12°C° 0 mm 1 mps 715 mmHg 45%
    23:00 +12°C° 0 mm 1 mps 715 mmHg 44%
    Show more